Find Kuiper-00177

NORAD ID: 67766 Int'l Des: 2026-030 Owner: KUIP Country: US Constellation: amazon-leo operational
LEOCIRCULAR

Current View

Loading 3D Globe...

About Kuiper-00177

Description loading...

Upcoming Passes

Passes for default location (London). Set your location on the main map for personalized predictions.

Altitude History

Loading altitude history...

Two-Line Element Set

1 67766U 26030C 26146.20987425 .00003834 00000-0 53165-3 0 9990
2 67766 51.9000 230.3269 0000545 91.4152 268.6873 14.79928431 16656
Epoch: May 26, 2026 • Age: 9 hours

Current Status

Altitude 636.2 km
Velocity 7.54 km/s
Sub-Earth Point -23.31°S, 27.14°W
Launch Date Feb 12, 2026
Age 0.2 years
Type internet

Technical Details

Classification Payload
Mass 490.00 kg
Dry Mass 490.00 kg
Total Mass 490.00 kg
Length 1.80 m
Diameter 0.70 m
Span 5.00 m
Shape Box + 2 pan
Manufacturer KUIP
Bus Type Kuiper
Phase Status In Orbit
Owner/State KUIP/US

Most Searched